Regional Weather Roundup
Issued by NWS

Home | Current Version | Previous Version | Graphics & Text | Print | Product List | Glossary On
Versions: 1 2 3 4 5 6 7 8 9 10 11 12 13 14 15 16 17 18 19 20 21 22 23 24 25 26 27 28 29 30 31 32 33 34 35 36 37 38 39 40 41 42 43 44 45 46 47 48 49 50
000
ASUS43 KIND 241159
RWRIN

WEATHER ROUNDUP FOR INDIANA
NATIONAL WEATHER SERVICE INDIANAPOLIS IN
800 AM EDT FRI OCT 24 2014

NOTE: "FAIR" INDICATES FEW OR NO CLOUDS BELOW 12,000 FEET WITH NO
SIGNIFICANT WEATHER AND/OR OBSTRUCTIONS TO VISIBILITY.

* - STATION DOES NOT REPORT WEATHER SUCH AS PRECIPITATION OR FOG.

+ - STATION NOT QUALITY CONTROLLED BY THE NATIONAL WEATHER SERVICE.
    USE DATA WITH CAUTION...ESPECIALLY DEWPOINT AND RELATIVE
    HUMIDITY OBSERVATIONS.

INZ001>003-010>013-019-020-241300-
NORTHWEST INDIANA

CITY           SKY/WX    TMP DP  RH WIND       PRES   REMARKS
GARY /AIRPORT/ CLOUDY    54  46  76 SW3       30.07S
VALPARAISO     NOT AVBL

$$

LMZ046-743>745-241300-
SOUTHERN LAKE MICHIGAN

STATION/POSITION TIME  TEMP WIND        PRES
                       AIR  DIR/SP/G
                 (UTC) (F)  (DEG/KT/KT) (MB)
MICHIGAN CITY    1100   53  160/  5/  7   N/A

$$

INZ004-005-014>016-021>024-241300-
NORTH CENTRAL INDIANA

CITY           SKY/WX    TMP DP  RH WIND       PRES   REMARKS
ELKHART        CLOUDY    48  43  81 S3        30.07F
GOSHEN         CLOUDY    47  44  90 S3        30.07F
6HR MIN TEMP:  41; 6HR MAX TEMP:  47; 6HR PCP: TRACE;

SOUTH BEND     CLOUDY    50  44  80 S5        30.07F
6HR MIN TEMP:  50; 6HR MAX TEMP:  51;


$$

INZ006>009-017-018-025>027-241300-
NORTHEAST INDIANA

CITY           SKY/WX    TMP DP  RH WIND       PRES   REMARKS
ANGOLA *+      MOCLDY    39  39 100 CALM      30.08S
FORT WAYNE     MOCLDY    42  39  89 CALM      30.10S
6HR MIN TEMP:  36; 6HR MAX TEMP:  42;


$$

INZ028-029-035-036-043>045-051>053-241300-
WEST CENTRAL INDIANA

CITY           SKY/WX    TMP DP  RH WIND       PRES   REMARKS
GREENCASTLE +  CLOUDY    43  41  93 CALM      30.11S
LAFAYETTE      CLOUDY    47  45  93 CALM      30.09F
6HR MIN TEMP:  43; 6HR MAX TEMP:  47; 6HR PCP:  0.02;

TERRE HAUTE    CLOUDY    48  45  89 SE5       30.10F
6HR MIN TEMP:  41; 6HR MAX TEMP:  48; 6HR PCP:  0.27;


$$

INZ030>032-037>040-046>048-054>057-064-065-241300-
CENTRAL INDIANA

CITY           SKY/WX    TMP DP  RH WIND       PRES   REMARKS
INDIANAPOLIS   PTCLDY    41  38  89 SW3       30.10S
6HR MIN TEMP:  40; 6HR MAX TEMP:  46;

-EAGLE CREEK   MOCLDY    42  40  92 CALM      30.10F
6HR MIN TEMP:  40; 6HR MAX TEMP:  44;

KOKOMO *+      CLOUDY    46  39  76 S6        30.10S
MT COMFORT *+  CLEAR     37 N/A N/A CALM      30.12R
SHELBYVILLE    CLEAR     36  34  92 CALM      30.11S FOG
6HR MIN TEMP:  36; 6HR MAX TEMP:  43;


$$

INZ033-034-041-042-049-050-058-059-241300-
EAST CENTRAL INDIANA

CITY           SKY/WX    TMP DP  RH WIND       PRES   REMARKS
MUNCIE         CLEAR     43  38  82 S6        30.10S
6HR MIN TEMP:  37; 6HR MAX TEMP:  43;


$$

INZ060-061-067>069-081>083-085>088-241300-
SOUTHWEST INDIANA

CITY           SKY/WX    TMP DP  RH WIND       PRES   REMARKS
EVANSVILLE     CLOUDY    49  46  90 CALM      30.13S
6HR MIN TEMP:  42; 6HR MAX TEMP:  49;

HUNTINGBURG *+ CLOUDY    43  39  87 CALM      30.13F
6HR MIN TEMP:  37; 6HR MAX TEMP:  45;


$$

INZ062-063-066-070>080-084-089>092-241300-
SOUTH CENTRAL AND SOUTHEAST INDIANA

CITY           SKY/WX    TMP DP  RH WIND       PRES   REMARKS
BLOOMINGTON    CLOUDY    40  40 100 CALM      30.11F
6HR MIN TEMP:  35; 6HR MAX TEMP:  41;

SEYMOUR +      FOG       36  34  93 CALM      30.12  VSB 3/4

$$




USA.gov is the U.S. government's official web portal to all federal, state and local government web resources and services.